Weather History for KXLL - June, 2013

Change the Weather History Date:

Sunday, June 30, 2013

  Actual Average (KABE) Record (KABE)
Temperature  
Mean Temperature 76 °F 72 °F  
Max Temperature 82 °F 83 °F 97 °F (1964)
Min Temperature 71 °F 62 °F 48 °F (1988)
Degree Days  
Heating Degree Days 0 0  
Month to date heating degree days 32  
Since 1 June heating degree days 33  
Since 1 July heating degree days 5801  
Cooling Degree Days 12 8  
Month to date cooling degree days 155  
Year to date cooling degree days 200  
Since 1 June cooling degree days 155  
Growing Degree Days 26 (Base 50)    
Moisture  
Dew Point 66 °F    
Average Humidity 71    
Maximum Humidity 83    
Minimum Humidity 54    
Precipitation  
Precipitation 0.00 in 0.15 in 1.31 in (1996)
Month to date precipitation 4.31  
Year to date precipitation 21.13  
Snow  
Snow 0.00 in 0.00 in 0.00 in (2002)
Month to date snowfall 0.0  
Since 1 June snowfall 0.0  
Since 1 July snowfall 32.9  
Snow Depth -    
Sea Level Pressure  
Sea Level Pressure 29.81 in    
Wind  
Wind Speed 3 mph (SSE)    
Max Wind Speed 17 mph    
Max Gust Speed 18 mph    
Visibility 10 miles    
Events Rain    
T = Trace of Precipitation, MM = Missing Value Source: NWS Daily Summary

Daily Weather History Graph

Daily Weather History Graph

Search for Another Location

Airport or City:

Trip Planner

Search our weather history database for the weather conditions in past years. The results will help you decide how hot, cold, wet, or windy it might be!

Date:

Astronomy

Jun. 30, 2013 Rise Set
Actual Time 5:34 AM EDT 8:36 PM EDT
Civil Twilight 5:01 AM EDT 9:09 PM EDT
Nautical Twilight 4:19 AM EDT 9:51 PM EDT
Astronomical Twilight 3:29 AM EDT 10:41 PM EDT
Moon 12:33 AM EDT (6/30) 1:47 PM EDT (6/30)
Length of Visible Light 16h 08m
Length of Day
15h 02m
Last Quarter, 45% of the Moon is Illuminated
Jun 30
Last Quarter
Jul 8
New
Jul 15
First Quarter
Jul 22
Full
Jul 29
Last Quarter

Hourly Weather History & Observations

Time (EDT) Temp. Heat Index Dew Point Humidity Pressure Visibility Wind Dir Wind Speed Gust Speed Precip Events Conditions
12:15 AM 73.4 °F - 62.6 °F 69% 29.73 in 10.0 mi Calm Calm - N/A   Scattered Clouds
12:35 AM 73.4 °F - 60.8 °F 65% 29.73 in 10.0 mi West 3.5 mph - N/A   Scattered Clouds
12:55 AM 71.6 °F - 62.6 °F 73% 29.73 in 10.0 mi SSW 3.5 mph - N/A   Clear
1:15 AM 71.6 °F - 62.6 °F 73% 29.73 in 10.0 mi SW 3.5 mph - N/A   Scattered Clouds
1:35 AM 73.4 °F - 62.6 °F 69% 29.73 in 10.0 mi Calm Calm - N/A   Clear
1:55 AM 71.6 °F - 62.6 °F 73% 29.73 in 10.0 mi Calm Calm - N/A   Scattered Clouds
2:15 AM 71.6 °F - 62.6 °F 73% 29.74 in 10.0 mi Calm Calm - N/A   Clear
2:35 AM 73.4 °F - 62.6 °F 69% 29.74 in 10.0 mi Calm Calm - N/A   Clear
2:55 AM 71.6 °F - 64.4 °F 78% 29.75 in 10.0 mi Calm Calm - N/A   Clear
3:15 AM 71.6 °F - 64.4 °F 78% 29.74 in 10.0 mi Calm Calm - N/A   Mostly Cloudy
3:35 AM 71.6 °F - 64.4 °F 78% 29.74 in 10.0 mi Calm Calm - N/A   Overcast
3:55 AM 71.6 °F - 64.4 °F 78% 29.74 in 10.0 mi Calm Calm - N/A   Mostly Cloudy
4:15 AM 71.6 °F - 64.4 °F 78% 29.73 in 10.0 mi Calm Calm - N/A   Scattered Clouds
4:35 AM 71.6 °F - 62.6 °F 73% 29.75 in 10.0 mi Calm Calm - N/A   Mostly Cloudy
4:55 AM 71.6 °F - 64.4 °F 78% 29.75 in 10.0 mi Calm Calm - N/A   Mostly Cloudy
5:15 AM 71.6 °F - 64.4 °F 78% 29.76 in 10.0 mi Calm Calm - N/A   Overcast
5:35 AM 71.6 °F - 64.4 °F 78% 29.77 in 10.0 mi Calm Calm - N/A   Overcast
5:55 AM 71.6 °F - 64.4 °F 78% 29.77 in 10.0 mi Calm Calm - N/A   Mostly Cloudy
6:15 AM 71.6 °F - 64.4 °F 78% 29.78 in 10.0 mi Calm Calm - N/A   Scattered Clouds
6:35 AM 71.6 °F - 64.4 °F 78% 29.79 in 10.0 mi Calm Calm - N/A   Scattered Clouds
6:55 AM 71.6 °F - 66.2 °F 83% 29.79 in 10.0 mi Calm Calm - N/A   Clear
7:15 AM 73.4 °F - 64.4 °F 73% 29.80 in 10.0 mi Calm Calm - N/A   Clear
7:35 AM 75.2 °F - 68.0 °F 78% 29.80 in 10.0 mi South 4.6 mph - N/A   Clear
7:55 AM 75.2 °F - 69.8 °F 83% 29.81 in 10.0 mi South 4.6 mph - N/A   Clear
8:15 AM 77.0 °F - 69.8 °F 78% 29.81 in 10.0 mi SSE 8.1 mph - N/A   Scattered Clouds
8:35 AM 77.0 °F - 69.8 °F 78% 29.82 in 10.0 mi South 6.9 mph - N/A   Scattered Clouds
8:55 AM 77.0 °F - 69.8 °F 78% 29.83 in 7.0 mi SW 4.6 mph - N/A   Mostly Cloudy
9:15 AM 78.8 °F - 69.8 °F 74% 29.82 in 10.0 mi South 5.8 mph - N/A   Mostly Cloudy
9:35 AM 78.8 °F - 69.8 °F 74% 29.82 in 10.0 mi SE 4.6 mph - N/A   Scattered Clouds
9:55 AM 78.8 °F - 68.0 °F 69% 29.82 in 10.0 mi ESE 3.5 mph - N/A   Scattered Clouds
10:15 AM 78.8 °F - 69.8 °F 74% 29.82 in 10.0 mi South 8.1 mph - N/A   Mostly Cloudy
10:35 AM 78.8 °F - 69.8 °F 74% 29.83 in 10.0 mi SSW 8.1 mph - N/A   Overcast
10:55 AM 80.6 °F 83.9 °F 69.8 °F 70% 29.83 in 10.0 mi SSW 6.9 mph - N/A   Overcast
11:15 AM 80.6 °F 83.9 °F 69.8 °F 70% 29.83 in 10.0 mi SSW 6.9 mph - N/A   Mostly Cloudy
11:35 AM 80.6 °F 83.9 °F 69.8 °F 70% 29.83 in 10.0 mi South 9.2 mph - N/A   Mostly Cloudy
11:55 AM 80.6 °F 83.9 °F 69.8 °F 70% 29.82 in 10.0 mi South 6.9 mph - N/A   Scattered Clouds
12:15 PM 82.4 °F 86.3 °F 69.8 °F 66% 29.81 in 10.0 mi SE 5.8 mph - N/A   Scattered Clouds
12:35 PM 82.4 °F 86.3 °F 69.8 °F 66% 29.82 in 10.0 mi SE 5.8 mph - N/A   Scattered Clouds
12:55 PM 82.4 °F 86.3 °F 69.8 °F 66% 29.82 in 7.0 mi SE 9.2 mph - N/A   Scattered Clouds
1:15 PM 82.4 °F 85.4 °F 68.0 °F 62% 29.81 in 10.0 mi SSE 9.2 mph - N/A   Scattered Clouds
1:35 PM 82.4 °F 85.4 °F 68.0 °F 62% 29.81 in 10.0 mi SE 6.9 mph - N/A   Scattered Clouds
1:55 PM 80.6 °F 83.9 °F 69.8 °F 70% 29.81 in 10.0 mi SSE 8.1 mph - N/A   Scattered Clouds
2:15 PM 80.6 °F 83.2 °F 68.0 °F 65% 29.81 in 10.0 mi SSE 6.9 mph - N/A   Mostly Cloudy
2:35 PM 77.0 °F - 68.0 °F 74% 29.83 in 10.0 mi ESE 17.3 mph - N/A Rain Light Rain
2:55 PM 77.0 °F - 68.0 °F 74% 29.83 in 10.0 mi SE 6.9 mph 10.4 mph N/A   Scattered Clouds
3:15 PM 78.8 °F - 68.0 °F 69% 29.83 in 10.0 mi South 8.1 mph - N/A   Scattered Clouds
3:35 PM 80.6 °F 83.2 °F 68.0 °F 65% 29.84 in 10.0 mi South 8.1 mph - N/A   Scattered Clouds
3:55 PM 82.4 °F 85.4 °F 68.0 °F 62% 29.83 in 10.0 mi South 11.5 mph - N/A   Scattered Clouds
4:15 PM 80.6 °F 83.2 °F 68.0 °F 65% 29.83 in 10.0 mi SSE 12.7 mph 18.4 mph N/A   Scattered Clouds
4:35 PM 80.6 °F 82.3 °F 64.4 °F 58% 29.82 in 10.0 mi SSE 13.8 mph - N/A   Scattered Clouds
4:55 PM 78.8 °F - 62.6 °F 57% 29.83 in 10.0 mi South 11.5 mph 17.3 mph N/A   Clear
5:15 PM 80.6 °F 82.3 °F 64.4 °F 58% 29.83 in 10.0 mi South 10.4 mph - N/A   Clear
5:35 PM 80.6 °F 82.3 °F 64.4 °F 58% 29.82 in 10.0 mi SSE 8.1 mph - N/A   Clear
5:55 PM 80.6 °F 82.3 °F 64.4 °F 58% 29.83 in 10.0 mi South 8.1 mph - N/A   Clear
6:15 PM 80.6 °F 81.8 °F 62.6 °F 54% 29.84 in 10.0 mi South 6.9 mph - N/A   Clear
6:35 PM 80.6 °F 82.3 °F 64.4 °F 58% 29.84 in 10.0 mi SSE 6.9 mph - N/A   Clear
6:55 PM 80.6 °F 82.3 °F 64.4 °F 58% 29.85 in 10.0 mi South 6.9 mph - N/A   Clear
7:15 PM 78.8 °F - 64.4 °F 61% 29.85 in 10.0 mi South 5.8 mph - N/A   Clear
7:35 PM 78.8 °F - 64.4 °F 61% 29.86 in 10.0 mi SSW 5.8 mph - N/A   Clear
7:55 PM 78.8 °F - 66.2 °F 65% 29.86 in 10.0 mi South 6.9 mph - N/A   Clear
8:15 PM 77.0 °F - 66.2 °F 69% 29.87 in 10.0 mi SE 3.5 mph - N/A   Clear
8:35 PM 77.0 °F - 66.2 °F 69% 29.88 in 10.0 mi SSE 4.6 mph - N/A   Clear
8:55 PM 77.0 °F - 68.0 °F 74% 29.88 in 10.0 mi SE 4.6 mph - N/A   Clear
9:15 PM 77.0 °F - 68.0 °F 74% 29.88 in 10.0 mi SSE 5.8 mph - N/A   Clear
9:35 PM 77.0 °F - 68.0 °F 74% 29.89 in 10.0 mi Calm Calm - N/A   Mostly Cloudy
9:55 PM 77.0 °F - 68.0 °F 74% 29.90 in 10.0 mi ENE 4.6 mph - N/A   Mostly Cloudy
10:15 PM 75.2 °F - 68.0 °F 78% 29.90 in 10.0 mi ESE 4.6 mph - N/A   Scattered Clouds
10:35 PM 73.4 °F - 68.0 °F 83% 29.91 in 10.0 mi ESE 3.5 mph - N/A   Clear
10:55 PM 75.2 °F - 68.0 °F 78% 29.91 in 10.0 mi SE 3.5 mph - N/A   Mostly Cloudy
11:15 PM 75.2 °F - 68.0 °F 78% 29.91 in 10.0 mi Calm Calm - N/A   Overcast
11:35 PM 75.2 °F - 68.0 °F 78% 29.91 in 10.0 mi Calm Calm - N/A   Overcast
11:55 PM 75.2 °F - 68.0 °F 78% 29.91 in 10.0 mi East 3.5 mph - N/A   Overcast